Stündliche Wetter Otrada

Heute, 10 April, Samstag

Zeit Temperatur Niederschläge Wind Luftdruck Luftfeuchtigkeit
00:00 0°C° 0 mm 4 m/S 745 mmHg 77%
01:00 0°C° 0 mm 4 m/S 745 mmHg 77%
02:00 0°C° 0 mm 4 m/S 745 mmHg 79%
03:00 0°C° 0 mm 4 m/S 745 mmHg 79%
04:00 -1°C° 0 mm 4 m/S 745 mmHg 80%
05:00 -1°C° 0 mm 4 m/S 745 mmHg 80%
06:00 0°C° 0 mm 5 m/S 745 mmHg 75%
07:00 +1°C° 0 mm 5 m/S 745 mmHg 70%
08:00 +2°C° 0 mm 6 m/S 745 mmHg 65%
09:00 +4°C° 0 mm 6 m/S 745 mmHg 60%
10:00 +5°C° 0 mm 7 m/S 745 mmHg 54%
11:00 +8°C° 0 mm 7 m/S 745 mmHg 48%
12:00 +8°C° 0 mm 7 m/S 745 mmHg 47%
13:00 +9°C° 0 mm 7 m/S 745 mmHg 45%
14:00 +9°C° 0 mm 7 m/S 745 mmHg 44%
15:00 +9°C° 0 mm 6 m/S 744 mmHg 46%
16:00 +9°C° 0 mm 6 m/S 744 mmHg 48%
17:00 +9°C° 0 mm 5 m/S 744 mmHg 49%
18:00 +7°C° 0 mm 5 m/S 745 mmHg 54%
19:00 +6°C° 0 mm 5 m/S 745 mmHg 58%
20:00 +5°C° 0 mm 4 m/S 745 mmHg 62%
21:00 +5°C° 0 mm 4 m/S 745 mmHg 64%
22:00 +4°C° 0 mm 4 m/S 745 mmHg 65%
23:00 +4°C° 0 mm 4 m/S 746 mmHg 66%

Morgen, 11 April, Sonntag

Zeit Temperatur Niederschläge Wind Luftdruck Luftfeuchtigkeit
00:00 +4°C° 0 mm 4 m/S 746 mmHg 69%
01:00 +3°C° 0 mm 4 m/S 746 mmHg 71%
02:00 +3°C° 0 mm 3 m/S 746 mmHg 73%
03:00 +2°C° 0 mm 3 m/S 746 mmHg 76%
04:00 +2°C° 0 mm 3 m/S 747 mmHg 79%
05:00 +1°C° 0 mm 3 m/S 747 mmHg 81%
06:00 +3°C° 0 mm 3 m/S 747 mmHg 76%
07:00 +4°C° 0 mm 3 m/S 748 mmHg 71%
08:00 +7°C° 0 mm 3 m/S 748 mmHg 65%
09:00 +8°C° 0 mm 4 m/S 748 mmHg 61%
10:00 +11°C° 0 mm 4 m/S 749 mmHg 57%
11:00 +12°C° 0 mm 4 m/S 749 mmHg 52%
12:00 +13°C° 0 mm 4 m/S 749 mmHg 50%
13:00 +14°C° 0 mm 4 m/S 749 mmHg 48%
14:00 +15°C° 0 mm 4 m/S 749 mmHg 46%
15:00 +14°C° 0 mm 4 m/S 749 mmHg 48%
16:00 +14°C° 0 mm 3 m/S 749 mmHg 50%
17:00 +14°C° 0 mm 3 m/S 749 mmHg 53%
18:00 +13°C° 0 mm 2 m/S 750 mmHg 59%
19:00 +10°C° 0 mm 2 m/S 750 mmHg 65%
20:00 +9°C° 0 mm 2 m/S 750 mmHg 72%
21:00 +8°C° 0 mm 2 m/S 751 mmHg 73%
22:00 +8°C° 0 mm 2 m/S 751 mmHg 74%
23:00 +7°C° 0 mm 2 m/S 751 mmHg 76%

übermorgen, 12 April, Montag

Zeit Temperatur Niederschläge Wind Luftdruck Luftfeuchtigkeit
00:00 +6°C° 0 mm 2 m/S 751 mmHg 76%
01:00 +6°C° 0 mm 2 m/S 751 mmHg 77%
02:00 +5°C° 0 mm 2 m/S 751 mmHg 78%
03:00 +5°C° 0 mm 2 m/S 751 mmHg 79%
04:00 +5°C° 0 mm 2 m/S 751 mmHg 80%
05:00 +4°C° 0 mm 2 m/S 751 mmHg 81%
06:00 +6°C° 0 mm 2 m/S 751 mmHg 75%
07:00 +7°C° 0 mm 2 m/S 751 mmHg 69%
08:00 +9°C° 0 mm 3 m/S 750 mmHg 62%
09:00 +10°C° 0 mm 3 m/S 750 mmHg 56%
10:00 +12°C° 0 mm 3 m/S 750 mmHg 50%
11:00 +13°C° 0 mm 3 m/S 749 mmHg 44%
12:00 +14°C° 0 mm 4 m/S 749 mmHg 41%
13:00 +14°C° 0 mm 4 m/S 748 mmHg 39%
14:00 +15°C° 0 mm 4 m/S 748 mmHg 36%
15:00 +13°C° 0 mm 4 m/S 747 mmHg 43%
16:00 +12°C° 0 mm 4 m/S 747 mmHg 51%
17:00 +11°C° 0 mm 4 m/S 747 mmHg 58%
18:00 +10°C° 0.1 mm 3 m/S 747 mmHg 67%
19:00 +9°C° 0.1 mm 3 m/S 747 mmHg 77%
20:00 +8°C° 0.1 mm 3 m/S 747 mmHg 86%
21:00 +8°C° 0.2 mm 3 m/S 746 mmHg 88%
22:00 +8°C° 0.2 mm 2 m/S 746 mmHg 90%
23:00 +8°C° 0.2 mm 2 m/S 746 mmHg 92%

13 April, Dienstag

Zeit Temperatur Niederschläge Wind Luftdruck Luftfeuchtigkeit
00:00 +9°C° 0.5 mm 1 m/S 746 mmHg 94%
01:00 +9°C° 0.5 mm 1 m/S 746 mmHg 95%
02:00 +9°C° 0.5 mm 1 m/S 745 mmHg 96%
03:00 +9°C° 0.6 mm 1 m/S 745 mmHg 97%
04:00 +9°C° 0.6 mm 1 m/S 745 mmHg 97%
05:00 +9°C° 0.6 mm 1 m/S 745 mmHg 97%
06:00 +9°C° 0.3 mm 1 m/S 745 mmHg 96%
07:00 +9°C° 0.3 mm 1 m/S 744 mmHg 95%
08:00 +9°C° 0.3 mm 1 m/S 744 mmHg 95%
09:00 +10°C° 0 mm 1 m/S 744 mmHg 92%
10:00 +9°C° 0 mm 2 m/S 744 mmHg 90%
11:00 +10°C° 0 mm 2 m/S 744 mmHg 88%
12:00 +12°C° 0 mm 2 m/S 744 mmHg 84%
13:00 +12°C° 0 mm 2 m/S 744 mmHg 81%
14:00 +13°C° 0 mm 2 m/S 743 mmHg 78%
15:00 +13°C° 0.1 mm 2 m/S 743 mmHg 80%
16:00 +13°C° 0.1 mm 2 m/S 743 mmHg 82%
17:00 +12°C° 0.1 mm 1 m/S 742 mmHg 84%
18:00 +12°C° 0 mm 2 m/S 742 mmHg 87%
19:00 +10°C° 0 mm 2 m/S 742 mmHg 90%
20:00 +10°C° 0 mm 2 m/S 743 mmHg 93%
21:00 +10°C° 0.1 mm 2 m/S 742 mmHg 94%
22:00 +10°C° 0.1 mm 2 m/S 742 mmHg 95%
23:00 +9°C° 0.1 mm 3 m/S 742 mmHg 96%

14 April, Mittwoch

Zeit Temperatur Niederschläge Wind Luftdruck Luftfeuchtigkeit
00:00 +9°C° 0.1 mm 2 m/S 742 mmHg 96%
01:00 +9°C° 0.1 mm 2 m/S 742 mmHg 97%
02:00 +9°C° 0.1 mm 2 m/S 742 mmHg 97%
03:00 +9°C° 0 mm 2 m/S 742 mmHg 97%
04:00 +9°C° 0 mm 2 m/S 742 mmHg 97%
05:00 +8°C° 0 mm 2 m/S 742 mmHg 97%
06:00 +9°C° 0 mm 2 m/S 742 mmHg 93%
07:00 +10°C° 0 mm 3 m/S 741 mmHg 89%
08:00 +10°C° 0 mm 3 m/S 741 mmHg 85%
09:00 +12°C° 0 mm 3 m/S 741 mmHg 76%
10:00 +13°C° 0 mm 4 m/S 741 mmHg 68%
11:00 +14°C° 0 mm 4 m/S 741 mmHg 59%
12:00 +14°C° 0 mm 4 m/S 741 mmHg 58%
13:00 +14°C° 0 mm 3 m/S 741 mmHg 57%
14:00 +14°C° 0 mm 3 m/S 741 mmHg 56%
15:00 +14°C° 0 mm 3 m/S 741 mmHg 59%
16:00 +14°C° 0 mm 2 m/S 740 mmHg 63%
17:00 +14°C° 0 mm 2 m/S 740 mmHg 66%
18:00 +13°C° 0 mm 2 m/S 740 mmHg 70%
19:00 +12°C° 0 mm 2 m/S 740 mmHg 75%
20:00 +10°C° 0 mm 2 m/S 741 mmHg 79%
21:00 +10°C° 0 mm 2 m/S 740 mmHg 82%
22:00 +10°C° 0 mm 2 m/S 740 mmHg 85%
23:00 +10°C° 0 mm 2 m/S 740 mmHg 89%

15 April, Donnerstag

Zeit Temperatur Niederschläge Wind Luftdruck Luftfeuchtigkeit
00:00 +9°C° 0 mm 2 m/S 740 mmHg 90%
01:00 +8°C° 0 mm 2 m/S 740 mmHg 91%
02:00 +9°C° 0 mm 1 m/S 740 mmHg 92%
03:00 +9°C° 0 mm 1 m/S 740 mmHg 91%
04:00 +9°C° 0 mm 1 m/S 740 mmHg 90%
05:00 +9°C° 0 mm 1 m/S 740 mmHg 89%
06:00 +10°C° 0 mm 1 m/S 740 mmHg 85%
07:00 +11°C° 0 mm 1 m/S 740 mmHg 82%
08:00 +12°C° 0 mm 1 m/S 741 mmHg 78%
09:00 +13°C° 0 mm 1 m/S 740 mmHg 72%
10:00 +14°C° 0 mm 1 m/S 740 mmHg 66%
11:00 +16°C° 0 mm 1 m/S 740 mmHg 60%
12:00 +16°C° 0.1 mm 2 m/S 740 mmHg 59%
13:00 +16°C° 0.1 mm 2 m/S 739 mmHg 58%
14:00 +16°C° 0.1 mm 3 m/S 739 mmHg 57%
15:00 +14°C° 0.4 mm 4 m/S 739 mmHg 63%
16:00 +14°C° 0.4 mm 4 m/S 739 mmHg 68%
17:00 +13°C° 0.4 mm 5 m/S 739 mmHg 74%
18:00 +10°C° 0.2 mm 5 m/S 739 mmHg 78%
19:00 +9°C° 0.2 mm 6 m/S 739 mmHg 83%
20:00 +8°C° 0.2 mm 6 m/S 740 mmHg 87%
21:00 +7°C° 0.2 mm 6 m/S 740 mmHg 87%
22:00 +5°C° 0.2 mm 6 m/S 740 mmHg 86%
23:00 +3°C° 0.2 mm 7 m/S 740 mmHg 85%
Mehr zeigen

Wir brauchen deine Erlaubnis

Meteoprog und unser Service Anbieter werden persönliche Daten aufbewahren, so wie Cookies, Geräte Bezeichnung oder ähnliche Technologien von deinem Gerät und Prozess, so wie Persönliche Daten Inhalte und Werbungen, genauso wie social Media und den Verkehr zu analysieren.

  • Aufbewahrung und/oder Zugang zu deiner Geräte Informationen.

    Cookies, Geräte Bezeichnung oder andere Informationen, können aufbewahrt oder Zugang zu deinem Gerät erhalten, für den Grund, der oben angegeben wird.

  • Personalisierte Werbung und Inhalte, Messungen, Einblick in das Publikum und Produkt Entwicklung.

    Werbungen und Inhalte können personalisiert werden, basierend auf ein Profil. Mehr Daten können besser personalisierte Werbungen und Inhalte hinzufügen. Werbung und Inhalte können gezeigt und gemessen werden. Einblicke über das Publikum, welche die Werbung gesehen haben und den Inhalt, können abgeleitet werden. So wie Daten können genutzt werden, um es zu verbessern oder die Benutzer Erfahrung zu verbessern das System und die Software.

Wenn du “Ich stimme zu” klickst, erlaubst du uns, die Cookies zu benutzen die Geräte Bezeichnung, den Web oder ähnliche Technologien zu benutzen. Deine Settings, können in deinem Gerät bei deinem Browser geändert werden.

Für den bestimmten Zweck, berechtigten Interessen beruhen darauf, mehr als auf den Inhalt. Du kannst mehr darüber in unseren Privaten und Cookie Politik lesen.